Time,TemperatureF,DewpointF,PressureIn,WindDirection,WindDirectionDegrees,WindSpeedMPH,WindSpeedGustMPH,Humidity,HourlyPrecipIn,Conditions,Clouds,dailyrainin,SoftwareType,DateUTC
2014-04-20 00:01:00,63.9,60.6,29.93,WNW,289,4.0,14.0,89,0.00,,OVC038,0.01,VWS V15.00,2014-04-20 04:01:00,
2014-04-20 00:03:00,63.9,60.6,29.93,NW,318,0.0,14.0,89,0.00,,OVC038,0.01,VWS V15.00,2014-04-20 04:03:00,
2014-04-20 00:08:00,64.0,60.7,29.93,NW,318,0.0,6.0,89,0.00,,OVC038,0.00,VWS V15.00,2014-04-20 04:08:00,
2014-04-20 00:13:00,64.0,60.7,29.93,NNW,339,3.0,14.0,89,0.00,,OVC038,0.00,VWS V15.00,2014-04-20 04:13:00,
2014-04-20 00:18:00,64.0,61.0,29.93,North,350,1.0,14.0,90,0.00,,OVC038,0.00,VWS V15.00,2014-04-20 04:18:00,
2014-04-20 00:23:00,63.9,60.9,29.93,NNW,346,4.0,14.0,90,0.00,,OVC038,0.00,VWS V15.00,2014-04-20 04:23:00,
2014-04-20 00:28:00,63.7,61.0,29.93,North,350,2.0,14.0,91,0.00,,OVC038,0.00,VWS V15.00,2014-04-20 04:28:00,
2014-04-20 00:33:00,63.5,60.8,29.93,NW,320,0.0,14.0,91,0.00,,OVC038,0.00,VWS V15.00,2014-04-20 04:33:00,
2014-04-20 00:38:00,63.5,60.8,29.93,NW,308,1.0,8.0,91,0.00,,OVC038,0.00,VWS V15.00,2014-04-20 04:38:00,
2014-04-20 00:43:00,63.4,60.7,29.93,North,356,1.0,10.0,91,0.01,,OVC038,0.01,VWS V15.00,2014-04-20 04:43:00,
2014-04-20 00:48:00,63.4,61.0,29.93,North,0,10.0,16.0,92,0.01,,OVC038,0.01,VWS V15.00,2014-04-20 04:48:00,
2014-04-20 00:53:00,63.2,60.8,29.93,NNW,337,15.0,16.0,92,0.01,,OVC038,0.01,VWS V15.00,2014-04-20 04:53:00,
2014-04-20 00:58:00,62.9,60.2,29.93,NNE,28,12.0,16.0,91,0.01,,OVC038,0.01,VWS V15.00,2014-04-20 04:58:00,
2014-04-20 01:03:00,62.7,60.3,29.93,North,352,2.0,16.0,92,0.01,,OVC037,0.01,VWS V15.00,2014-04-20 05:03:00,
2014-04-20 01:08:00,62.9,60.5,29.93,North,359,7.0,12.0,92,0.01,,OVC037,0.01,VWS V15.00,2014-04-20 05:08:00,
2014-04-20 01:13:00,62.7,60.3,29.93,North,349,0.0,12.0,92,0.01,,OVC037,0.01,VWS V15.00,2014-04-20 05:13:00,
2014-04-20 01:18:00,62.6,60.2,29.93,North,357,9.0,12.0,92,0.01,,OVC037,0.01,VWS V15.00,2014-04-20 05:18:00,
2014-04-20 01:23:00,62.9,60.5,29.93,NNW,346,3.0,12.0,92,0.01,,OVC037,0.01,VWS V15.00,2014-04-20 05:23:00,
2014-04-20 01:28:00,62.9,60.5,29.93,North,350,6.0,12.0,92,0.01,,OVC037,0.01,VWS V15.00,2014-04-20 05:28:00,
2014-04-20 01:33:00,62.7,60.3,29.93,WNW,298,0.0,12.0,92,0.01,,OVC037,0.01,VWS V15.00,2014-04-20 05:33:00,
2014-04-20 01:38:00,62.7,60.3,29.93,NE,42,5.0,8.0,92,0.01,,OVC037,0.01,VWS V15.00,2014-04-20 05:38:00,
2014-04-20 01:43:00,62.6,60.2,29.93,WNW,299,0.0,8.0,92,0.01,,OVC037,0.01,VWS V15.00,2014-04-20 05:43:00,
2014-04-20 01:48:00,62.4,60.0,29.93,NE,45,0.0,8.0,92,0.01,,OVC037,0.01,VWS V15.00,2014-04-20 05:48:00,
2014-04-20 01:53:00,62.3,60.0,29.93,North,0,0.0,8.0,92,0.01,,OVC037,0.01,VWS V15.00,2014-04-20 05:53:00,
2014-04-20 01:58:00,62.1,59.8,29.93,NE,45,0.0,8.0,92,0.01,,OVC037,0.01,VWS V15.00,2014-04-20 05:58:00,
2014-04-20 02:03:00,62.1,59.8,29.93,NE,45,0.0,8.0,92,0.01,,OVC015,0.01,VWS V15.00,2014-04-20 06:03:00,
2014-04-20 02:08:00,62.0,59.7,29.93,NNE,23,0.0,5.0,92,0.00,,OVC015,0.01,VWS V15.00,2014-04-20 06:08:00,
2014-04-20 02:13:00,62.0,59.7,29.93,NNE,21,0.0,5.0,92,0.00,,OVC015,0.01,VWS V15.00,2014-04-20 06:13:00,
2014-04-20 02:18:00,62.0,59.7,29.93,NNE,16,0.0,5.0,92,0.00,,OVC015,0.01,VWS V15.00,2014-04-20 06:18:00,
2014-04-20 02:23:00,62.0,59.7,29.92,NNE,20,0.0,5.0,92,0.00,,OVC015,0.01,VWS V15.00,2014-04-20 06:23:00,
2014-04-20 02:28:00,62.0,59.7,29.92,NNE,20,2.0,5.0,92,0.00,,OVC015,0.01,VWS V15.00,2014-04-20 06:28:00,
2014-04-20 02:33:00,62.0,59.7,29.92,NNE,20,0.0,5.0,92,0.00,,OVC015,0.01,VWS V15.00,2014-04-20 06:33:00,
2014-04-20 02:38:00,62.0,59.7,29.92,NNE,20,0.0,0.0,92,0.00,,OVC015,0.01,VWS V15.00,2014-04-20 06:38:00,
2014-04-20 02:43:00,62.0,59.7,29.92,NNE,20,0.0,0.0,92,0.00,,OVC015,0.01,VWS V15.00,2014-04-20 06:43:00,
2014-04-20 02:48:00,62.0,59.7,29.92,NNE,20,0.0,2.0,92,0.00,,OVC015,0.01,VWS V15.00,2014-04-20 06:48:00,
2014-04-20 02:53:00,62.0,59.7,29.91,NNE,20,1.0,2.0,92,0.00,,OVC015,0.01,VWS V15.00,2014-04-20 06:53:00,
2014-04-20 02:58:00,61.8,59.5,29.91,NNE,18,0.0,3.0,92,0.00,,OVC015,0.01,VWS V15.00,2014-04-20 06:58:00,
2014-04-20 03:03:00,61.8,59.5,29.91,NNE,18,0.0,3.0,92,0.00,,OVC031,0.01,VWS V15.00,2014-04-20 07:03:00,
2014-04-20 03:08:00,61.6,59.3,29.91,NNE,18,0.0,0.0,92,0.00,,OVC031,0.01,VWS V15.00,2014-04-20 07:08:00,
2014-04-20 03:13:00,61.6,59.3,29.91,NNE,20,0.0,2.0,92,0.00,,OVC031,0.01,VWS V15.00,2014-04-20 07:13:00,
2014-04-20 03:18:00,61.5,59.2,29.91,NNE,20,0.0,2.0,92,0.00,,OVC031,0.01,VWS V15.00,2014-04-20 07:18:00,
2014-04-20 03:23:00,61.6,59.3,29.90,NNE,20,0.0,2.0,92,0.00,,OVC031,0.01,VWS V15.00,2014-04-20 07:23:00,
2014-04-20 03:28:00,61.6,59.6,29.90,NNE,20,0.0,2.0,93,0.00,,OVC031,0.01,VWS V15.00,2014-04-20 07:28:00,
2014-04-20 03:33:00,62.1,60.1,29.90,North,6,2.0,3.0,93,0.00,,OVC031,0.01,VWS V15.00,2014-04-20 07:33:00,
2014-04-20 03:38:00,62.4,60.3,29.90,North,0,0.0,3.0,93,0.00,,OVC031,0.01,VWS V15.00,2014-04-20 07:38:00,
2014-04-20 03:43:00,62.6,60.5,29.90,North,356,0.0,3.0,93,0.00,,OVC031,0.01,VWS V15.00,2014-04-20 07:43:00,
2014-04-20 03:48:00,62.6,60.2,29.90,NNW,342,0.0,4.0,92,0.00,,OVC031,0.01,VWS V15.00,2014-04-20 07:48:00,
2014-04-20 03:53:00,62.6,60.2,29.90,NNW,346,1.0,4.0,92,0.00,,OVC031,0.01,VWS V15.00,2014-04-20 07:53:00,
2014-04-20 03:58:00,62.6,60.2,29.90,North,0,1.0,6.0,92,0.00,,OVC031,0.01,VWS V15.00,2014-04-20 07:58:00,
2014-04-20 04:03:00,62.7,60.3,29.90,North,0,1.0,6.0,92,0.00,,OVC031,0.01,VWS V15.00,2014-04-20 08:03:00,
2014-04-20 04:08:00,62.9,60.5,29.91,NNW,343,0.0,2.0,92,0.00,,OVC031,0.01,VWS V15.00,2014-04-20 08:08:00,
2014-04-20 04:13:00,63.1,60.7,29.91,NNW,329,0.0,6.0,92,0.00,,OVC031,0.01,VWS V15.00,2014-04-20 08:13:00,
2014-04-20 04:18:00,63.2,60.8,29.91,North,0,0.0,7.0,92,0.00,,OVC031,0.01,VWS V15.00,2014-04-20 08:18:00,
2014-04-20 04:23:00,63.2,60.5,29.91,North,0,0.0,7.0,91,0.00,,OVC031,0.01,VWS V15.00,2014-04-20 08:23:00,
2014-04-20 04:28:00,63.4,60.7,29.91,North,0,1.0,7.0,91,0.00,,OVC031,0.01,VWS V15.00,2014-04-20 08:28:00,
2014-04-20 04:33:00,63.5,60.8,29.91,North,0,0.0,7.0,91,0.00,,OVC031,0.01,VWS V15.00,2014-04-20 08:33:00,
2014-04-20 04:38:00,63.5,60.5,29.92,North,353,5.0,7.0,90,0.00,,OVC031,0.01,VWS V15.00,2014-04-20 08:38:00,
2014-04-20 04:43:00,63.5,60.5,29.92,North,0,0.0,7.0,90,0.00,,OVC031,0.01,VWS V15.00,2014-04-20 08:43:00,
2014-04-20 04:48:00,63.5,60.2,29.92,North,349,0.0,7.0,89,0.00,,OVC031,0.01,VWS V15.00,2014-04-20 08:48:00,
2014-04-20 04:53:00,63.5,60.2,29.92,North,356,1.0,7.0,89,0.00,,OVC031,0.01,VWS V15.00,2014-04-20 08:53:00,
2014-04-20 04:58:00,63.7,60.7,29.92,North,0,0.0,7.0,90,0.00,,OVC031,0.01,VWS V15.00,2014-04-20 08:58:00,
2014-04-20 05:03:00,63.9,60.6,29.92,NNW,333,0.0,7.0,89,0.00,,OVC031,0.01,VWS V15.00,2014-04-20 09:03:00,
2014-04-20 05:08:00,63.9,60.6,29.92,NNW,343,3.0,6.0,89,0.00,,OVC031,0.01,VWS V15.00,2014-04-20 09:08:00,
2014-04-20 05:13:00,64.0,60.7,29.92,NNW,344,0.0,6.0,89,0.00,,OVC031,0.01,VWS V15.00,2014-04-20 09:13:00,
2014-04-20 05:18:00,64.0,61.0,29.92,NW,320,1.0,6.0,90,0.00,,OVC031,0.01,VWS V15.00,2014-04-20 09:18:00,
2014-04-20 05:23:00,64.2,60.9,29.92,NW,326,0.0,6.0,89,0.00,,OVC031,0.01,VWS V15.00,2014-04-20 09:23:00,
2014-04-20 05:28:00,64.2,61.2,29.92,North,0,8.0,10.0,90,0.00,,OVC031,0.01,VWS V15.00,2014-04-20 09:28:00,
2014-04-20 05:33:00,64.2,60.9,29.92,NNW,347,0.0,11.0,89,0.00,,OVC031,0.01,VWS V15.00,2014-04-20 09:33:00,
2014-04-20 05:38:00,64.2,60.9,29.93,North,7,6.0,7.0,89,0.00,,OVC031,0.01,VWS V15.00,2014-04-20 09:38:00,
2014-04-20 05:43:00,64.2,60.9,29.93,North,352,0.0,8.0,89,0.00,,OVC031,0.01,VWS V15.00,2014-04-20 09:43:00,
2014-04-20 05:48:00,64.2,60.9,29.93,North,0,0.0,8.0,89,0.00,,OVC031,0.01,VWS V15.00,2014-04-20 09:48:00,
2014-04-20 05:53:00,64.2,60.9,29.93,North,352,3.0,10.0,89,0.00,,OVC031,0.01,VWS V15.00,2014-04-20 09:53:00,
2014-04-20 05:58:00,64.2,60.6,29.93,North,0,0.0,10.0,88,0.00,,OVC031,0.01,VWS V15.00,2014-04-20 09:58:00,
2014-04-20 06:03:00,64.2,60.6,29.93,North,0,2.0,10.0,88,0.00,,OVC032,0.01,VWS V15.00,2014-04-20 10:03:00,
2014-04-20 06:08:00,64.2,60.6,29.93,North,359,2.0,6.0,88,0.00,,OVC032,0.01,VWS V15.00,2014-04-20 10:08:00,
2014-04-20 06:13:00,64.2,60.6,29.93,North,356,0.0,6.0,88,0.00,,OVC032,0.01,VWS V15.00,2014-04-20 10:13:00,
2014-04-20 06:18:00,64.2,60.6,29.93,North,349,0.0,6.0,88,0.00,,OVC032,0.01,VWS V15.00,2014-04-20 10:18:00,
2014-04-20 06:23:00,64.0,60.7,29.94,North,0,0.0,6.0,89,0.00,,OVC032,0.01,VWS V15.00,2014-04-20 10:23:00,
2014-04-20 06:28:00,63.9,60.6,29.94,North,4,1.0,6.0,89,0.00,,OVC032,0.01,VWS V15.00,2014-04-20 10:28:00,
2014-04-20 06:33:00,63.9,60.6,29.94,NNE,14,0.0,6.0,89,0.00,,OVC032,0.01,VWS V15.00,2014-04-20 10:33:00,
2014-04-20 06:38:00,63.5,60.2,29.94,NE,44,0.0,2.0,89,0.00,,OVC032,0.01,VWS V15.00,2014-04-20 10:38:00,
2014-04-20 06:43:00,63.4,60.1,29.94,NE,38,0.0,5.0,89,0.00,,OVC032,0.01,VWS V15.00,2014-04-20 10:43:00,
2014-04-20 06:46:00,63.2,60.2,29.94,North,0,0.0,6.0,90,0.00,,OVC032,0.01,VWS V15.00,2014-04-20 10:46:00,
2014-04-20 06:51:00,63.1,60.1,29.95,NE,49,0.0,6.0,90,0.00,,OVC032,0.01,VWS V15.00,2014-04-20 10:51:00,
2014-04-20 06:56:00,62.9,59.9,29.95,NE,38,0.0,7.0,90,0.00,,OVC032,0.01,VWS V15.00,2014-04-20 10:56:00,
2014-04-20 07:01:00,62.6,59.6,29.95,NNE,32,0.0,7.0,90,0.00,,OVC015,0.01,VWS V15.00,2014-04-20 11:01:00,
2014-04-20 07:06:00,62.6,59.9,29.95,NE,45,5.0,8.0,91,0.00,,OVC015,0.01,VWS V15.00,2014-04-20 11:06:00,
2014-04-20 07:11:00,62.4,59.7,29.95,NE,52,0.0,7.0,91,0.00,,OVC015,0.01,VWS V15.00,2014-04-20 11:11:00,
2014-04-20 07:16:00,62.3,59.6,29.95,NE,51,0.0,7.0,91,0.00,,OVC015,0.01,VWS V15.00,2014-04-20 11:16:00,
2014-04-20 07:21:00,62.1,59.5,29.95,NE,44,0.0,7.0,91,0.00,,OVC015,0.01,VWS V15.00,2014-04-20 11:21:00,
2014-04-20 07:26:00,62.0,59.3,29.95,NE,44,0.0,7.0,91,0.00,,OVC015,0.01,VWS V15.00,2014-04-20 11:26:00,
2014-04-20 07:31:00,62.0,59.3,29.95,NE,44,0.0,7.0,91,0.00,,OVC015,0.01,VWS V15.00,2014-04-20 11:31:00,
2014-04-20 07:36:00,61.8,59.2,29.96,NE,38,1.0,7.0,91,0.00,,OVC015,0.01,VWS V15.00,2014-04-20 11:36:00,
2014-04-20 07:41:00,61.6,59.0,29.96,North,6,2.0,5.0,91,0.00,,OVC015,0.01,VWS V15.00,2014-04-20 11:41:00,
2014-04-20 07:46:00,61.6,59.0,29.96,NE,45,0.0,6.0,91,0.00,,OVC015,0.01,VWS V15.00,2014-04-20 11:46:00,
2014-04-20 07:51:00,61.6,59.0,29.96,NNE,32,0.0,10.0,91,0.00,,OVC015,0.01,VWS V15.00,2014-04-20 11:51:00,
2014-04-20 07:56:00,61.6,59.0,29.96,NNE,25,1.0,10.0,91,0.00,,OVC015,0.01,VWS V15.00,2014-04-20 11:56:00,
2014-04-20 08:01:00,61.8,59.2,29.96,North,8,7.0,10.0,91,0.00,,OVC009,0.01,VWS V15.00,2014-04-20 12:01:00,
2014-04-20 08:06:00,61.6,59.0,29.97,NE,44,2.0,10.0,91,0.00,,OVC009,0.01,VWS V15.00,2014-04-20 12:06:00,
2014-04-20 08:11:00,61.8,59.2,29.97,NE,40,2.0,6.0,91,0.00,,OVC009,0.01,VWS V15.00,2014-04-20 12:11:00,
2014-04-20 08:16:00,62.0,59.3,29.97,NNE,28,2.0,6.0,91,0.00,,OVC009,0.01,VWS V15.00,2014-04-20 12:16:00,
2014-04-20 08:21:00,62.1,59.5,29.98,NNE,28,0.0,6.0,91,0.00,,OVC009,0.01,VWS V15.00,2014-04-20 12:21:00,
2014-04-20 08:26:00,62.6,59.6,29.98,NNE,20,3.0,6.0,90,0.00,,OVC009,0.01,VWS V15.00,2014-04-20 12:26:00,
2014-04-20 08:31:00,62.6,59.3,29.98,North,7,0.0,7.0,89,0.00,,OVC009,0.01,VWS V15.00,2014-04-20 12:31:00,
2014-04-20 08:36:00,62.9,59.6,29.99,North,0,0.0,7.0,89,0.00,,OVC009,0.01,VWS V15.00,2014-04-20 12:36:00,
2014-04-20 08:41:00,63.1,59.5,29.99,North,0,5.0,6.0,88,0.00,,OVC009,0.01,VWS V15.00,2014-04-20 12:41:00,
2014-04-20 08:46:00,63.2,59.6,29.99,ENE,62,1.0,6.0,88,0.00,,OVC009,0.01,VWS V15.00,2014-04-20 12:46:00,
2014-04-20 08:51:00,63.5,59.9,29.98,NE,48,5.0,6.0,88,0.00,,OVC009,0.01,VWS V15.00,2014-04-20 12:51:00,
2014-04-20 08:56:00,63.7,59.8,29.98,North,0,0.0,6.0,87,0.00,,OVC009,0.01,VWS V15.00,2014-04-20 12:56:00,
2014-04-20 09:01:00,64.3,60.3,29.98,North,11,3.0,6.0,87,0.00,,OVC008,0.01,VWS V15.00,2014-04-20 13:01:00,
2014-04-20 09:06:00,64.8,60.5,29.98,NNE,24,0.0,6.0,86,0.00,,OVC008,0.01,VWS V15.00,2014-04-20 13:06:00,
2014-04-20 09:11:00,65.0,60.4,29.98,North,356,7.0,7.0,85,0.00,,OVC008,0.01,VWS V15.00,2014-04-20 13:11:00,
2014-04-20 09:16:00,65.3,60.3,29.98,NNE,14,2.0,7.0,84,0.00,,OVC008,0.01,VWS V15.00,2014-04-20 13:16:00,
2014-04-20 09:21:00,65.6,60.6,29.98,NNW,346,3.0,7.0,84,0.00,,OVC008,0.01,VWS V15.00,2014-04-20 13:21:00,
2014-04-20 09:26:00,65.8,60.2,29.98,North,8,0.0,8.0,82,0.00,,OVC008,0.01,VWS V15.00,2014-04-20 13:26:00,
2014-04-20 09:31:00,66.0,60.0,29.98,North,3,1.0,8.0,81,0.00,,OVC008,0.01,VWS V15.00,2014-04-20 13:31:00,
2014-04-20 09:36:00,65.8,59.8,29.99,North,0,3.0,11.0,81,0.00,,OVC008,0.01,VWS V15.00,2014-04-20 13:36:00,
2014-04-20 09:41:00,65.8,59.8,29.99,North,352,1.0,7.0,81,0.00,,OVC008,0.01,VWS V15.00,2014-04-20 13:41:00,
2014-04-20 09:46:00,66.1,60.1,29.99,North,350,3.0,7.0,81,0.00,,OVC008,0.01,VWS V15.00,2014-04-20 13:46:00,
2014-04-20 09:51:00,66.3,60.0,30.00,North,7,5.0,13.0,80,0.00,,OVC008,0.01,VWS V15.00,2014-04-20 13:51:00,
2014-04-20 09:56:00,66.0,59.7,30.00,North,356,5.0,13.0,80,0.00,,OVC008,0.01,VWS V15.00,2014-04-20 13:56:00,
2014-04-20 10:01:00,66.1,60.1,30.00,NNW,344,3.0,13.0,81,0.00,,SCT035,0.01,VWS V15.00,2014-04-20 14:01:00,
2014-04-20 10:06:00,66.0,60.0,30.00,NNW,346,9.0,13.0,81,0.00,,SCT035,0.01,VWS V15.00,2014-04-20 14:06:00,
2014-04-20 10:11:00,66.1,60.5,30.00,North,10,5.0,11.0,82,0.00,,SCT035,0.01,VWS V15.00,2014-04-20 14:11:00,
2014-04-20 10:16:00,66.1,60.5,30.00,North,0,6.0,13.0,82,0.00,,SCT035,0.01,VWS V15.00,2014-04-20 14:16:00,
2014-04-20 10:21:00,66.1,60.5,30.01,North,3,5.0,13.0,82,0.00,,SCT035,0.01,VWS V15.00,2014-04-20 14:21:00,
2014-04-20 10:26:00,66.8,61.5,30.01,North,0,2.0,13.0,83,0.00,,SCT035,0.01,VWS V15.00,2014-04-20 14:26:00,
2014-04-20 10:31:00,66.6,60.6,30.01,North,0,0.0,13.0,81,0.00,,SCT035,0.01,VWS V15.00,2014-04-20 14:31:00,
2014-04-20 10:36:00,66.0,60.0,30.01,North,6,6.0,13.0,81,0.00,,SCT035,0.01,VWS V15.00,2014-04-20 14:36:00,
2014-04-20 10:41:00,65.5,59.5,30.01,North,352,10.0,10.0,81,0.00,,SCT035,0.01,VWS V15.00,2014-04-20 14:41:00,
2014-04-20 10:46:00,65.5,59.9,30.01,North,359,2.0,10.0,82,0.00,,SCT035,0.01,VWS V15.00,2014-04-20 14:46:00,
2014-04-20 10:51:00,65.6,60.0,30.01,NNW,347,5.0,10.0,82,0.00,,SCT035,0.01,VWS V15.00,2014-04-20 14:51:00,
2014-04-20 10:56:00,65.5,59.9,30.01,North,356,1.0,10.0,82,0.00,,SCT035,0.01,VWS V15.00,2014-04-20 14:56:00,
2014-04-20 11:01:00,65.5,59.5,30.01,North,0,8.0,12.0,81,0.00,,BKN020,0.01,VWS V15.00,2014-04-20 15:01:00,
2014-04-20 11:06:00,65.6,60.0,30.01,North,3,4.0,12.0,82,0.00,,BKN020,0.01,VWS V15.00,2014-04-20 15:06:00,
2014-04-20 11:11:00,65.8,60.2,30.01,North,0,8.0,11.0,82,0.00,,BKN020,0.01,VWS V15.00,2014-04-20 15:11:00,
2014-04-20 11:16:00,65.8,59.8,30.01,NNW,347,5.0,13.0,81,0.00,,BKN020,0.01,VWS V15.00,2014-04-20 15:16:00,
2014-04-20 11:21:00,66.1,59.8,30.01,North,1,0.0,14.0,80,0.00,,BKN020,0.01,VWS V15.00,2014-04-20 15:21:00,
2014-04-20 11:26:00,66.6,60.2,30.01,North,0,4.0,14.0,80,0.00,,BKN020,0.01,VWS V15.00,2014-04-20 15:26:00,
2014-04-20 11:31:00,66.6,59.9,30.01,North,359,3.0,14.0,79,0.00,,BKN020,0.01,VWS V15.00,2014-04-20 15:31:00,
2014-04-20 11:36:00,66.8,60.1,30.00,North,0,10.0,14.0,79,0.00,,BKN020,0.01,VWS V15.00,2014-04-20 15:36:00,
2014-04-20 11:41:00,66.6,59.5,30.00,North,1,1.0,10.0,78,0.00,,BKN020,0.01,VWS V15.00,2014-04-20 15:41:00,
2014-04-20 11:46:00,66.6,59.9,30.00,North,352,0.0,12.0,79,0.00,,BKN020,0.01,VWS V15.00,2014-04-20 15:46:00,
2014-04-20 11:51:00,66.8,59.7,30.01,North,11,0.0,12.0,78,0.00,,BKN020,0.01,VWS V15.00,2014-04-20 15:51:00,
2014-04-20 11:56:00,67.3,60.2,30.01,North,357,9.0,12.0,78,0.00,,BKN020,0.01,VWS V15.00,2014-04-20 15:56:00,
2014-04-20 12:01:00,67.4,60.0,30.01,NNW,330,1.0,12.0,77,0.00,,OVC022,0.01,VWS V15.00,2014-04-20 16:01:00,
2014-04-20 12:06:00,67.8,60.0,30.00,North,359,0.0,12.0,76,0.00,,OVC022,0.01,VWS V15.00,2014-04-20 16:06:00,
2014-04-20 12:11:00,68.1,60.3,30.00,NW,322,4.0,10.0,76,0.00,,OVC022,0.01,VWS V15.00,2014-04-20 16:11:00,
2014-04-20 12:16:00,68.4,60.5,30.00,North,349,0.0,10.0,76,0.00,,OVC022,0.01,VWS V15.00,2014-04-20 16:16:00,
2014-04-20 12:21:00,68.3,60.1,30.01,WNW,299,2.0,10.0,75,0.00,,OVC022,0.01,VWS V15.00,2014-04-20 16:21:00,
2014-04-20 12:26:00,68.4,60.5,30.01,NW,326,0.0,10.0,76,0.00,,OVC022,0.01,VWS V15.00,2014-04-20 16:26:00,
2014-04-20 12:31:00,68.4,60.5,30.01,WNW,296,1.0,10.0,76,0.00,,OVC022,0.01,VWS V15.00,2014-04-20 16:31:00,
2014-04-20 12:36:00,68.3,60.8,30.00,NW,306,3.0,10.0,77,0.00,,OVC022,0.01,VWS V15.00,2014-04-20 16:36:00,
2014-04-20 12:41:00,68.1,60.6,30.00,North,0,4.0,8.0,77,0.00,,OVC022,0.01,VWS V15.00,2014-04-20 16:41:00,